Location: Pasadena-CA
(34.1440°N, 118.1100°W)
Time: 12:36:19
(UTC-07:00)

Oscar 19 - Pass Details

Date: 04 July 2022
Orbit: 773 x 790 km, 98.8° (Epoch: 17 August)

Event Time Altitude Azimuth Distance (km) Brightness Sun altitude
Rises 03:33:38 0° 26° (NNE) 3,253 15.2 -21.9°
Reaches altitude 10° 03:36:16 10° 38° (NE) 2,322 14.3 -21.6°
Maximum altitude 03:40:39 28° 97° (E) 1,405 12.3 -21.0°
Enters shadow 03:44:52 11° 155° (SSE) 2,263 12.8 -20.4°
